Location: Newark
(47.5833°N, 8.1500°E)
Time: 08:35:12
(UTC+00:00)

Tiros 1 despin weight - Pass Details

Date: 02 November 2020
Orbit: 593 x 642 km, 48.2° (Epoch: 28 November)

Event Time Altitude Azimuth Distance (km) Brightness Sun altitude
Rises 22:23:44 0° 239° (WSW) 2,883 - -56.1°
Reaches altitude 10° 22:26:05 10° 236° (SW) 1,971 - -56.2°
Maximum altitude 22:30:31 58° 157° (SSE) 712 - -56.5°
Drops below altitude 10° 22:34:54 10° 79° (E) 1,948 - -56.7°
Sets 22:37:12 0° 75° (ENE) 2,846 - -56.8°
